FW6369 Weather Reports


Display with metric or nautical units.
time (UTC)temp
F
wind
direction
speed
MPH
gust
MPH
rain 1hr
in
rain 24hr
in
rain mn
in
humidity
%
barometer
mb
20260901200055 73 239 0.0 2.0 0.00 0.00 0.00 59 1015.8
20260901194556 70 84 0.0 2.0 0.00 0.00 0.00 66 1015.8
20260901193058 69 0 0.0 3.0 0.00 0.00 0.00 65 1015.9
20260901191614 68 279 0.0 4.0 0.00 0.00 0.00 69 1016.1
20260901190055 67 254 1.0 4.0 0.00 0.00 0.00 69 1016.2
20260901184611 69 268 1.0 6.0 0.00 0.00 0.00 65 1016.2
20260901183059 70 0 0.0 2.0 0.00 0.00 0.00 68 1016.2
20260901181602 69 140 0.0 2.0 0.00 0.00 0.00 71 1016.2
20260901180055 67 0 0.0 4.0 0.00 0.00 0.00 72 1016.1
20260901174603 67 313 0.0 2.0 0.00 0.00 0.00 72 1016.1
20260901173056 67 246 0.0 2.0 0.00 0.00 0.00 73 1015.8
20260901171602 66 0 0.0 3.0 0.00 0.00 0.00 76 1015.6
20260901164608 65 0 0.0 2.0 0.00 0.00 0.00 78 1015.6
20260901163057 64 0 0.0 1.0 0.00 0.00 0.00 81 1015.5
20260901161614 62 0 0.0 3.0 0.00 0.00 0.00 83 1015.4
20260901160114 62 0 0.0 3.0 0.00 0.00 0.00 82 1015.5
20260901154600 62 0 0.0 0.0 0.00 0.00 0.00 83 1015.4
20260901153111 62 0 0.0 0.0 0.00 0.00 0.00 84 1015.3
20260901151604 60 0 0.0 0.0 0.00 0.00 0.00 88 1015.1
20260901150103 60 0 0.0 0.0 0.00 0.00 0.00 90 1015.1
20260901144555 59 0 0.0 0.0 0.00 0.00 0.00 90 1014.7
20260901143121 58 0 0.0 0.0 0.00 0.00 0.00 90 1014.5
20260901141559 58 0 0.0 0.0 0.00 0.00 0.00 90 1014.3
20260901134555 57 0 0.0 0.0 0.00 0.00 0.00 90 1014.0
20260901133101 57 0 0.0 0.0 0.00 0.00 0.00 91 1013.9
20260901131557 57 0 0.0 0.0 0.00 0.00 0.00 91 1013.8
20260901130103 57 0 0.0 1.0 0.00 0.00 0.00 91 1013.7
20260901124600 56 0 0.0 1.0 0.00 0.00 0.00 92 1013.6
20260901123117 56 0 0.0 1.0 0.00 0.00 0.00 92 1013.5
20260901121556 56 0 0.0 0.0 0.00 0.00 0.00 92 1013.4
20260901114603 56 0 0.0 1.0 0.00 0.00 0.00 92 1013.3
20260901113059 56 76 0.0 0.0 0.00 0.00 0.00 92 1013.2
20260901111609 55 0 0.0 0.0 0.00 0.00 0.00 93 1013.6
20260901110110 55 0 0.0 0.0 0.00 0.00 0.00 93 1013.9
20260901104601 55 0 0.0 0.0 0.00 0.00 0.00 93 1014.0
20260901103057 54 0 0.0 0.0 0.00 0.00 0.00 93 1013.9
20260901101606 54 0 0.0 0.0 0.00 0.00 0.00 94 1013.7
20260901100058 53 0 0.0 0.0 0.00 0.00 0.00 94 1013.6
20260901094558 52 0 0.0 1.0 0.00 0.00 0.00 94 1013.4
20260901093059 52 98 0.0 1.0 0.00 0.00 0.00 93 1013.5
20260901091600 52 0 0.0 1.0 0.00 0.00 0.00 93 1013.3
20260901090057 52 0 0.0 1.0 0.00 0.00 0.00 92 1013.3
20260901084556 53 0 0.0 1.0 0.00 0.00 0.00 93 1013.4
20260901083054 53 0 0.0 1.0 0.00 0.00 0.00 94 1013.3
20260901081600 53 0 0.0 1.0 0.00 0.00 0.00 92 1013.3
20260901080057 53 0 0.0 1.0 0.00 0.00 0.00 92 1013.4
20260901074558 53 92 0.0 1.0 0.00 0.00 0.00 92 1013.0
20260901073056 54 0 0.0 1.0 0.00 0.00 0.00 91 1013.0
20260901071600 54 0 0.0 0.0 0.00 0.00 0.00 91 1013.1
20260901064553 55 0 0.0 1.0 0.00 0.00 0.00 90 1013.1
20260901063106 56 0 0.0 0.0 0.00 0.00 0.00 90 1013.1
20260901061626 56 0 0.0 0.0 0.00 0.00 0.00 89 1013.1
20260901054559 57 0 0.0 0.0 0.00 0.00 0.00 88 1013.1
20260901053107 58 0 0.0 0.0 0.00 0.00 0.00 88 1013.2
20260901051554 58 0 0.0 0.0 0.00 0.00 0.00 87 1013.2
20260901044603 59 0 0.0 0.0 0.00 0.00 0.00 86 1013.1
20260901043101 59 0 0.0 0.0 0.00 0.00 0.00 86 1013.1
20260901041553 60 0 0.0 1.0 0.00 0.00 0.00 85 1013.0
20260901040056 60 0 0.0 1.0 0.00 0.00 0.00 84 1012.8
20260901034559 60 0 0.0 0.0 0.00 0.00 0.00 83 1012.7
20260901033055 61 0 0.0 1.0 0.00 0.00 0.00 82 1012.5
20260901031557 61 0 0.0 0.0 0.00 0.00 0.00 80 1012.4
20260901030055 62 0 0.0 2.0 0.00 0.00 0.00 78 1012.3
20260901024557 64 0 0.0 2.0 0.00 0.00 0.00 76 1012.2
20260901023056 65 217 0.0 1.0 0.00 0.00 0.00 73 1012.2
20260901021556 67 327 0.0 1.0 0.00 0.00 0.00 69 1011.8
20260901020112 70 133 0.0 1.0 0.00 0.00 0.00 63 1011.9
20260901014553 72 267 0.0 3.0 0.00 0.00 0.00 61 1011.8
20260901013059 73 0 0.0 4.0 0.00 0.00 0.00 60 1011.7
20260901011554 73 0 1.0 4.0 0.00 0.00 0.00 60 1011.7
20260901010104 73 0 0.0 0.0 0.00 0.00 0.00 61 1011.5
20260901004607 73 0 0.0 0.0 0.00 0.00 0.00 60 1011.5
20260901003056 74 0 0.0 0.0 0.00 0.00 0.00 59 1011.6
20260901001552 74 0 0.0 0.0 0.00 0.00 0.00 60 1011.5
20260901000106 74 0 0.0 0.0 0.00 0.00 0.00 59 1011.6
20260831234604 74 0 0.0 0.0 0.00 0.00 0.00 60 1011.6
20260831233102 74 0 0.0 1.0 0.00 0.00 0.00 61 1011.7
20260831231557 74 109 1.0 5.0 0.00 0.00 0.00 60 1011.7
20260831230054 75 74 0.0 2.0 0.00 0.00 0.00 60 1011.8
20260831224557 74 0 0.0 2.0 0.00 0.00 0.00 62 1011.9
20260831223058 73 252 0.0 2.0 0.00 0.00 0.00 61 1012.0
20260831221558 73 80 1.0 5.0 0.00 0.00 0.00 62 1012.3
20260831220058 74 250 0.0 2.0 0.00 0.00 0.00 60 1012.4
20260831214600 73 235 0.0 3.0 0.00 0.00 0.00 61 1012.6
20260831213059 73 0 0.0 3.0 0.00 0.00 0.00 63 1012.8
20260831211554 72 281 0.0 2.0 0.00 0.00 0.00 63 1013.0
20260831210057 71 84 0.0 2.0 0.00 0.00 0.00 64 1013.1
20260831204557 70 287 0.0 2.0 0.00 0.00 0.00 68 1013.2
20260831203108 69 0 0.0 3.0 0.00 0.00 0.00 72 1013.4
20260831201559 68 0 0.0 5.0 0.00 0.00 0.00 69 1013.4